Theta_e
296 297 297 297 296 296 296 296 296 296 299 301 300 300 302 306 303 300 309 310 306 307 310 312 312 314 315 315 316 317 318 318 319 320 317 315 314 315 316 316 317 317 317 319 319 320 321 322 324 325 327 330 333 337 343 345 346 349 352 358 350 349 351 351 354 355 355 355 357 359 359 360 360 358 357 357 358 358 358 357 355 355 354 352 354 356 356
295 296 296 296 295 295 296 296 296 297 299 300 302 302 305 307 310 311 310 309 307 309 310 312 312 314 315 316 317 317 317 316 317 318 318 316 316 315 315 316 317 318 318 319 319 320 321 320 321 323 324 326 328 331 336 342 345 347 350 354 357 351 349 351 354 356 357 358 357 359 359 361 362 361 359 359 358 358 358 358 359 359 358 356 354 354 355
293 294 296 297 295 295 294 295 296 297 299 301 302 303 305 308 309 310 309 307 305 310 313 312 314 315 316 316 315 314 315 315 315 315 315 316 316 316 317 317 318 319 320 320 319 320 320 320 321 322 323 325 327 329 333 340 345 347 348 351 354 357 352 352 355 358 359 359 359 358 360 362 363 363 361 360 359 360 359 359 360 361 359 356 354 353 353
291 294 294 294 295 294 294 294 295 296 297 297 301 304 307 305 305 308 308 305 304 309 313 314 314 314 314 313 314 313 312 313 314 313 313 313 314 315 316 317 317 318 318 319 320 321 321 321 321 321 322 324 325 327 331 335 340 347 349 352 353 356 359 357 356 357 358 361 361 359 360 361 363 364 363 361 360 361 359 357 360 359 357 357 357 355 353
292 294 294 294 293 294 291 293 295 297 298 302 305 306 308 308 308 304 304 306 311 311 313 311 312 312 312 313 313 314 314 313 312 312 312 312 312 313 314 314 315 316 315 316 320 323 324 322 321 321 322 322 322 325 328 334 339 342 346 350 353 354 355 357 357 355 358 358 359 360 361 362 363 363 364 362 360 359 357 359 358 359 360 357 358 357 355
293 293 294 295 292 286 288 298 300 301 297 298 300 302 304 306 310 307 310 310 312 312 311 311 311 311 312 313 313 314 314 313 313 313 313 313 313 313 313 314 314 315 316 315 317 321 325 325 324 323 323 323 323 325 328 334 337 340 342 346 350 350 351 350 354 357 359 357 356 357 360 361 362 362 361 361 360 358 358 359 360 358 358 358 358 359 358
292 294 294 291 285 287 296 302 302 303 302 303 304 304 305 306 308 308 308 308 309 310 311 312 312 313 314 314 314 313 314 315 313 313 313 313 314 313 314 314 314 316 316 317 317 318 322 324 325 324 323 324 324 324 326 331 336 338 340 341 341 343 347 350 353 355 357 358 358 358 358 359 359 359 359 359 360 359 356 356 358 359 357 358 358 358 357
296 292 291 282 285 296 300 300 303 306 306 304 304 301 304 306 306 307 306 307 308 309 310 311 312 313 313 315 316 315 313 314 314 312 312 313 314 313 314 314 315 316 316 316 316 318 320 319 322 323 323 323 323 323 326 327 332 336 339 339 339 340 340 343 347 351 354 355 355 357 359 358 357 357 358 360 359 360 359 355 357 357 359 359 358 357 357
289 291 290 289 296 296 297 298 299 301 300 301 301 297 300 305 306 306 305 306 308 309 310 311 312 313 312 312 314 315 312 312 312 313 312 313 313 314 315 314 314 317 317 317 317 319 318 317 317 319 323 324 324 324 325 326 329 334 336 337 337 337 338 342 345 348 350 353 355 357 357 356 356 356 357 358 359 362 360 359 355 355 358 358 360 358 358
296 292 288 289 289 284 294 301 306 307 307 308 308 303 300 306 307 308 308 306 306 307 308 309 310 311 309 307 310 312 312 311 310 312 313 313 313 313 314 315 315 317 317 318 318 318 318 318 318 318 319 321 324 326 325 326 327 330 332 332 334 335 335 338 341 344 347 349 352 354 356 356 356 356 358 357 357 359 359 358 357 357 358 358 360 361 359
294 292 288 287 284 289 301 302 303 306 306 305 305 298 295 305 307 308 307 306 306 307 306 307 309 307 304 305 309 310 310 310 311 310 312 312 312 313 313 313 314 314 316 318 318 319 318 317 319 319 319 318 320 323 325 324 325 326 326 329 331 333 335 337 341 343 345 347 350 352 354 354 354 357 356 354 357 356 355 358 359 360 359 357 358 360 359
295 293 288 287 293 292 301 303 303 303 307 302 303 290 291 304 307 307 307 307 306 306 307 308 307 305 302 304 307 309 309 309 310 311 311 311 312 312 313 314 315 316 318 318 317 316 315 318 319 319 318 319 319 321 323 324 325 325 325 326 329 332 335 337 339 341 343 346 347 349 351 353 354 357 357 356 353 355 358 358 357 357 358 358 357 356 358
293 290 291 293 295 302 304 303 305 305 305 303 293 287 299 306 307 308 307 307 307 308 307 307 304 307 309 308 308 309 309 309 309 311 312 311 312 312 312 313 316 315 315 315 315 316 317 319 319 318 318 317 319 321 321 322 324 326 327 328 328 331 333 335 338 340 342 345 346 348 350 350 352 353 354 354 354 355 356 357 357 356 357 359 356 357 358
291 293 291 291 296 302 305 306 306 306 301 290 291 303 309 309 308 309 308 306 307 307 306 306 306 307 308 307 307 308 308 308 310 310 310 311 311 313 314 314 314 314 313 315 316 315 318 318 318 318 318 318 320 321 320 320 322 325 328 329 329 330 332 334 338 340 342 344 346 348 350 350 351 352 354 354 354 358 356 356 357 358 359 358 357 357 358
294 293 290 288 284 300 307 305 304 305 296 299 305 307 308 308 308 306 306 306 306 306 305 305 306 306 305 306 306 307 308 308 309 310 310 311 311 311 312 313 313 312 313 313 314 315 316 317 317 318 318 319 320 321 320 322 323 324 326 328 330 330 331 333 336 336 341 343 344 347 349 351 350 349 351 351 351 354 356 357 359 357 358 359 359 356 357
288 289 286 287 298 303 308 304 298 303 303 308 308 306 303 306 306 306 305 306 306 306 305 305 305 306 306 306 307 308 308 309 310 310 311 311 312 311 311 311 312 313 312 313 314 315 315 317 318 318 319 319 321 321 322 324 323 323 325 327 330 330 330 331 332 335 338 341 344 346 348 348 348 349 351 351 352 355 355 356 355 355 355 357 357 357 358
293 292 296 299 303 306 308 306 305 307 309 310 308 305 306 306 306 308 306 307 308 308 307 306 306 304 306 306 307 307 307 308 308 309 310 310 311 311 311 311 313 313 312 313 313 313 315 316 318 319 320 319 321 321 323 325 324 323 324 326 328 329 330 330 331 333 335 339 341 343 345 346 347 349 349 351 352 354 353 352 352 353 355 356 357 356 356
303 303 303 304 303 305 305 308 309 308 308 308 307 306 305 307 308 309 306 308 307 307 308 305 305 305 306 306 306 307 307 308 309 310 310 311 312 311 311 312 313 313 312 313 313 313 314 315 316 319 319 319 319 321 323 324 324 324 324 325 327 328 329 330 331 331 332 333 336 340 341 343 346 350 351 352 352 353 354 351 351 352 352 354 354 354 354
296 291 304 302 302 304 305 306 307 309 309 308 308 307 307 308 308 308 309 308 308 307 307 306 306 306 306 306 307 308 308 308 309 310 310 310 311 311 311 312 312 312 312 311 312 313 313 316 316 316 318 319 320 321 322 322 323 324 324 324 326 327 328 328 330 331 331 330 333 335 338 339 342 346 351 352 352 352 354 355 353 352 352 352 352 352 353
297 296 303 303 305 306 306 305 305 306 307 309 309 309 310 310 310 309 309 309 307 307 306 307 306 306 307 307 307 307 308 308 309 309 309 310 310 311 312 312 313 313 312 312 312 313 313 316 317 317 317 317 319 320 320 321 321 323 324 325 325 326 327 328 328 330 330 330 332 334 336 338 338 340 345 350 351 351 352 353 353 352 352 352 351 353 354
300 304 304 306 305 305 305 306 307 308 309 309 309 309 309 309 308 308 308 309 307 307 307 307 306 306 307 307 307 307 307 308 308 308 309 309 309 310 310 311 312 312 312 312 313 313 314 315 316 318 319 319 319 320 321 322 323 324 323 324 325 326 326 327 326 329 329 329 330 332 335 338 340 342 343 343 346 350 354 357 356 354 354 356 356 357 359
296 297 301 304 297 299 304 305 306 307 309 309 310 310 308 308 308 308 307 307 308 307 308 307 307 306 306 307 307 307 307 308 308 308 308 308 309 309 310 311 311 311 312 312 313 313 314 315 316 317 318 319 320 320 321 322 323 323 323 322 323 323 324 324 324 326 326 326 328 330 331 334 336 338 337 323 333 342 342 338 329 320 322 347 353 357 356
296 303 306 306 305 304 305 308 309 309 309 309 308 309 308 308 309 309 307 307 307 307 308 308 307 307 306 307 307 306 306 307 307 308 308 306 307 307 309 309 309 310 311 311 312 312 313 314 315 316 317 318 319 320 321 322 321 322 322 322 321 322 323 323 323 325 325 326 327 329 331 332 333 333 334 338 317 312 318 325 323 319 315 312 313 317 339
304 306 306 307 305 303 306 308 309 309 311 310 309 310 310 309 309 309 308 308 307 307 308 309 309 308 308 308 307 306 307 307 307 308 308 308 308 308 309 308 309 309 309 311 311 311 312 313 314 315 315 316 317 318 320 321 321 321 321 320 320 321 322 323 324 325 326 328 329 329 330 331 332 332 333 334 337 322 312 314 316 312 311 311 309 309 309
303 308 308 308 307 308 309 310 310 311 312 311 309 309 309 309 309 309 308 308 308 307 307 307 308 309 308 307 307 306 306 306 307 307 308 308 308 307 308 308 309 309 309 310 311 311 312 312 312 313 313 314 316 316 319 318 319 319 319 319 319 319 321 323 323 325 325 327 329 330 330 331 332 333 333 334 335 337 350 311 305 306 308 308 307 305 305
308 308 309 309 308 307 309 309 309 310 310 310 310 310 310 310 310 309 309 309 309 309 308 307 307 308 308 306 306 306 306 306 307 307 306 306 307 307 307 308 309 309 309 309 310 311 311 312 312 312 312 313 315 316 316 318 318 319 320 320 321 322 323 323 323 323 324 326 328 329 331 332 333 333 334 335 335 335 334 336 338 325 307 303 303 305 303
308 309 308 306 305 306 307 306 306 310 310 310 310 310 310 310 309 309 310 310 310 310 308 308 307 307 307 307 307 307 306 306 307 306 306 306 306 306 307 308 309 309 309 309 309 310 311 311 311 311 312 313 315 316 317 318 318 318 319 319 320 321 322 324 324 324 324 325 327 330 332 333 333 332 331 332 333 332 331 331 331 331 334 341 320 303 325
308 308 307 302 302 303 305 308 309 310 310 310 310 310 310 310 309 308 308 308 308 308 307 307 306 306 306 306 306 305 306 306 305 306 305 305 306 307 308 308 309 309 309 309 309 310 311 311 310 311 311 313 315 315 315 316 317 317 317 318 318 319 320 321 322 323 324 325 326 328 330 332 333 331 331 330 329 330 329 330 331 332 334 336 341 327 309
310 310 310 309 309 309 309 310 310 309 309 309 310 310 309 308 308 307 307 307 307 307 306 306 307 306 305 305 306 305 304 304 304 305 305 306 307 307 308 309 309 310 310 310 310 310 310 310 310 310 310 313 314 315 315 315 315 315 316 317 317 318 320 321 323 323 324 325 326 328 326 327 329 330 331 330 329 329 330 330 331 333 334 337 340 341 335
310 310 308 307 308 308 308 306 306 307 307 308 308 308 309 308 306 307 307 306 306 305 305 306 306 305 306 305 305 305 304 304 304 305 305 306 307 308 308 309 309 309 309 309 309 310 310 310 310 311 311 313 313 314 314 314 314 315 316 317 317 318 319 322 323 323 323 323 324 323 325 328 329 329 329 329 329 329 329 330 331 332 333 335 331 336 339
309 309 308 308 308 307 305 305 306 305 306 306 307 306 306 307 306 307 306 306 305 304 305 305 305 305 305 305 305 306 306 306 306 305 306 307 308 309 309 309 307 306 306 308 309 311 311 311 311 312 313 314 314 314 313 313 313 314 315 315 316 316 316 317 319 322 321 321 322 323 324 326 327 327 327 328 328 328 329 330 331 332 333 334 335 337 340
306 306 307 306 306 305 304 304 305 304 304 305 304 304 305 306 306 305 305 303 304 304 304 304 304 304 305 305 305 305 305 306 306 306 306 307 307 308 308 308 307 308 308 309 310 310 311 312 312 313 314 314 315 314 313 312 313 313 314 316 317 318 318 318 320 320 321 322 322 323 324 325 326 327 326 326 326 327 328 329 329 330 333 333 334 337 339
305 305 305 305 304 304 303 304 305 305 304 304 304 306 307 307 307 306 305 305 304 304 304 304 304 304 305 305 305 305 305 305 305 305 305 305 306 307 307 307 307 308 309 310 310 311 311 311 312 313 314 313 314 314 313 313 313 312 313 315 317 318 320 319 319 321 322 322 322 323 325 325 325 325 326 326 327 327 327 327 327 328 330 331 332 335 334
304 305 308 308 307 304 304 305 306 305 305 306 306 307 306 306 306 305 305 305 304 303 304 304 305 305 305 304 305 305 305 304 302 303 304 304 305 305 307 307 307 308 309 310 310 309 309 309 311 313 313 313 313 313 313 313 313 314 316 317 318 318 319 320 321 321 321 321 322 323 324 325 326 325 326 326 326 327 326 325 325 326 326 329 332 332 325
307 308 309 308 309 309 309 308 306 306 305 305 305 306 306 306 305 305 306 305 305 304 305 305 305 305 305 304 304 303 303 302 302 302 303 304 304 305 306 306 307 307 308 308 309 309 310 310 311 313 315 315 315 314 314 313 314 314 316 317 319 319 320 320 320 320 320 321 322 322 322 323 324 325 325 325 325 324 324 324 324 324 325 326 328 330 328
306 307 308 308 308 309 308 307 307 307 306 305 306 305 305 305 305 305 305 306 306 305 305 305 305 305 304 303 302 302 302 302 302 302 302 302 303 303 304 304 305 305 305 306 308 308 309 310 311 312 313 313 313 315 317 317 317 317 318 318 319 320 320 320 320 320 320 321 320 320 321 321 322 323 323 323 323 322 322 323 324 324 325 326 327 328 329
307 305 306 308 310 310 309 308 307 307 307 306 306 305 306 306 305 306 307 306 305 305 305 305 304 303 303 304 304 303 302 301 301 301 301 301 302 303 303 303 303 302 303 302 306 307 309 309 311 312 312 312 313 314 315 316 318 318 316 317 318 319 318 318 318 318 318 319 319 319 319 321 321 321 321 319 319 320 320 321 322 323 324 324 325 326 326
309 307 305 306 307 309 308 308 308 307 307 306 307 306 306 306 307 306 306 305 305 306 306 305 303 303 303 303 302 301 301 301 300 300 300 300 301 301 301 302 301 302 301 302 306 307 308 309 310 311 310 310 310 311 313 315 316 315 315 315 314 316 316 315 316 317 317 318 319 319 319 319 318 318 319 319 319 319 319 320 320 320 321 322 324 324 324
310 311 308 308 308 308 307 307 307 307 306 306 305 306 307 306 307 307 305 305 305 306 304 303 303 303 302 301 300 300 300 300 300 299 299 299 300 300 300 301 302 302 303 306 307 307 308 309 309 308 309 309 310 310 312 314 315 313 313 314 314 314 314 315 316 316 316 316 316 316 316 317 317 317 317 318 318 318 317 317 317 317 317 318 318 317 316
307 309 309 307 306 307 307 306 306 306 306 307 306 305 306 306 306 305 305 305 305 304 303 302 302 301 300 300 300 299 300 300 299 299 299 299 299 299 300 301 303 304 305 306 307 306 307 307 308 308 308 309 309 310 311 312 313 313 312 312 313 314 314 315 315 314 314 314 314 314 314 314 315 315 315 315 315 315 315 314 314 313 312 313 312 311 310
305 307 309 309 308 308 307 305 304 305 306 306 306 307 307 306 306 304 304 303 303 303 302 302 301 300 300 300 300 300 300 300 299 299 300 299 298 298 297 298 302 304 304 304 305 305 306 306 307 306 306 307 308 310 310 311 310 310 310 311 311 311 311 312 312 312 312 312 313 312 312 313 313 313 313 313 312 312 311 310 310 309 309 309 308 308 307
305 306 308 306 302 301 306 306 305 305 305 306 306 307 307 307 306 305 305 304 303 303 302 302 301 301 301 301 301 300 299 299 299 300 300 299 298 297 296 297 302 302 304 304 304 304 305 305 305 306 305 306 307 308 308 308 308 308 308 309 309 310 310 311 311 311 311 311 311 311 312 312 311 311 311 310 310 309 308 307 306 306 305 305 305 305 305
305 306 306 306 303 304 305 305 305 304 304 305 306 306 307 307 306 305 304 303 302 302 302 302 302 301 301 300 300 299 298 299 299 299 300 300 301 300 298 298 301 302 303 304 303 302 302 304 304 304 305 305 306 306 307 306 307 307 308 308 308 309 309 309 309 309 309 309 309 310 311 311 310 309 307 307 307 305 304 303 302 303 303 302 302 303 303
305 305 305 306 307 307 306 305 304 304 304 304 306 306 306 306 305 304 303 302 301 301 301 301 301 300 300 300 299 299 298 299 299 298 297 297 298 300 302 301 301 302 302 302 303 301 302 302 302 302 305 304 304 305 305 305 305 305 306 307 307 307 307 307 307 308 308 308 308 308 308 308 307 307 306 305 303 302 301 301 301 301 301 301 302 301 301
305 305 305 307 307 307 306 304 303 303 304 305 305 305 306 305 305 304 303 302 301 301 302 301 301 300 300 300 300 300 300 300 300 299 296 295 295 296 301 301 301 301 302 301 301 300 301 301 301 302 302 303 303 304 303 303 303 303 304 304 305 305 305 305 306 306 306 306 306 307 307 306 305 305 305 304 303 302 300 300 299 300 300 299 300 299 299
304 305 306 305 305 305 305 306 305 305 304 304 304 305 305 305 304 303 303 302 301 301 302 302 302 301 301 300 300 300 301 301 301 301 301 299 297 298 302 301 301 301 301 301 300 300 300 301 300 300 301 301 302 302 302 302 302 302 302 302 303 304 304 304 304 304 304 304 305 305 305 305 304 304 304 304 303 301 300 300 300 299 299 299 299 299 299
304 304 305 304 305 306 306 305 306 304 303 303 301 302 303 304 303 303 302 303 302 302 302 302 302 302 302 301 300 299 298 299 301 301 301 301 302 301 302 302 301 301 300 300 300 300 300 300 299 299 299 300 300 300 300 301 300 300 301 301 301 301 302 302 303 302 302 302 303 303 303 303 303 303 303 302 303 302 301 300 299 299 300 300 299 299 299
303 303 304 304 305 304 304 303 303 302 301 301 302 303 303 303 303 302 302 303 302 302 302 302 303 303 303 303 303 302 301 300 297 298 301 302 301 301 301 300 300 301 300 300 299 299 300 299 299 298 298 298 298 298 298 299 300 300 300 299 299 299 300 300 300 301 301 301 302 302 301 301 301 302 302 302 301 300 300 299 298 298 298 298 298 298 297
304 303 305 305 306 303 302 302 301 301 301 303 303 303 303 302 302 302 302 302 301 301 301 302 302 303 303 303 303 302 303 303 302 299 302 302 301 300 300 301 301 301 301 300 299 299 300 299 298 298 298 297 295 295 296 297 297 298 298 298 298 298 298 297 297 298 298 299 300 300 300 300 300 300 300 300 300 299 299 298 298 298 298 298 298 298 297
303 303 304 302 302 302 301 300 300 301 304 304 303 303 303 302 301 301 301 301 302 301 301 301 301 303 303 302 302 304 305 304 303 303 304 302 302 302 301 302 302 300 300 299 299 299 299 299 298 298 297 296 296 295 295 295 295 296 296 297 297 297 297 297 296 296 296 297 297 298 298 298 298 298 299 298 298 298 298 297 297 297 297 297 297 297 296
301 303 302 302 302 302 303 303 302 305 305 305 305 304 303 302 301 301 302 302 302 301 300 300 300 301 303 303 303 303 304 304 303 302 301 301 302 301 300 301 301 300 301 299 299 298 298 299 298 297 296 296 296 295 295 295 294 295 295 295 295 296 296 296 295 295 295 295 295 295 295 296 296 295 295 295 296 296 296 296 297 297 296 296 296 295 296
301 304 304 301 302 302 302 303 307 307 307 306 306 304 303 302 302 301 302 301 302 300 300 300 299 301 302 302 302 303 303 303 303 302 301 301 301 300 301 300 301 300 299 299 298 299 298 299 298 297 297 296 296 295 295 295 294 295 295 295 295 295 295 295 295 294 294 294 293 293 293 293 293 293 294 294 294 294 295 294 294 295 295 295 295 295 295
Wind_Speed
5 5 6 4 3 4 3 3 2 4 3 4 3 4 4 5 6 8 14 15 13 12 12 11 10 9 8 8 9 9 9 8 9 10 11 13 13 13 15 14 14 14 15 13 14 14 13 15 15 15 13 13 12 10 10 8 7 8 9 9 10 12 12 12 12 12 11 11 11 11 12 11 11 12 12 11 11 11 11 11 11 12 13 13 13 13 12
5 4 3 3 2 4 3 3 3 2 3 6 6 7 7 7 10 18 16 15 13 10 11 11 10 9 9 8 7 8 9 10 10 10 11 13 12 13 14 13 13 13 13 13 14 14 14 14 14 13 13 13 12 12 11 10 9 8 10 8 9 8 12 12 12 12 11 10 10 10 10 11 11 11 11 11 11 12 12 12 11 10 11 12 13 13 12
4 4 2 2 2 3 5 4 3 3 4 6 7 9 10 12 11 14 16 15 13 9 10 11 9 8 8 9 9 9 9 9 10 11 12 12 12 13 12 12 13 12 12 13 13 14 14 14 14 11 11 10 11 12 11 11 10 10 8 8 7 8 9 11 11 11 10 11 11 11 10 11 11 11 12 11 11 11 11 11 11 11 11 12 13 13 13
5 3 2 3 3 4 4 5 4 4 6 6 4 4 3 3 10 12 14 12 10 10 10 10 9 7 7 8 8 8 8 9 9 10 11 11 12 12 12 12 12 12 13 13 13 13 12 12 12 12 11 10 10 11 11 10 10 8 8 7 6 6 7 9 10 10 11 11 11 12 11 11 11 11 11 11 11 11 11 12 11 12 12 12 12 13 12
4 6 3 2 5 5 6 7 5 4 3 4 6 5 3 4 9 11 10 7 11 11 10 10 9 8 6 6 5 7 7 8 9 9 9 10 11 11 11 12 12 11 12 12 12 12 11 11 10 11 11 11 10 10 10 11 9 9 8 7 6 5 6 7 7 9 10 11 12 11 11 12 11 10 11 11 12 12 13 12 12 12 12 13 13 13 13
5 5 2 4 5 8 3 8 6 2 3 4 5 6 5 3 4 5 6 10 9 10 7 6 7 7 6 6 6 6 5 5 7 7 8 9 9 9 10 11 11 11 10 10 10 11 10 10 9 9 9 10 10 9 8 9 9 8 8 7 6 3 2 7 7 7 9 11 12 12 12 11 11 11 11 12 13 12 12 11 11 12 13 14 13 13 13
3 4 4 5 7 3 7 4 5 2 3 2 5 7 5 4 5 8 9 9 9 6 6 6 5 4 7 5 5 6 6 6 6 6 7 8 8 9 9 10 11 11 11 11 11 11 10 10 9 10 10 10 10 10 10 9 9 9 8 8 8 9 8 4 5 8 8 8 10 11 12 11 11 12 13 13 12 11 11 11 12 12 13 13 13 13 14
2 3 4 4 2 6 3 5 4 4 2 5 7 6 4 3 3 5 7 7 6 6 6 5 3 2 1 2 4 5 6 6 6 6 7 7 8 9 9 9 9 10 11 11 12 12 11 10 9 10 11 11 11 11 10 10 9 8 8 8 7 7 7 7 6 5 6 8 9 10 10 10 11 12 12 12 12 11 11 11 11 11 11 12 13 14 14
3 3 5 1 6 6 5 5 6 6 5 8 5 3 8 6 5 5 6 5 5 5 5 3 2 0 3 6 6 9 4 5 6 6 6 6 6 7 7 8 8 8 9 10 11 9 10 11 10 10 10 10 11 10 11 10 10 9 8 7 8 7 7 7 7 7 6 7 8 7 8 10 11 11 11 12 12 10 11 11 11 12 12 12 11 13 14
5 4 4 3 4 4 7 6 7 3 4 4 2 5 8 7 5 6 8 6 5 4 3 1 3 2 4 5 6 7 4 5 6 6 6 6 6 6 7 7 6 7 9 10 10 10 10 9 10 10 10 10 10 9 10 10 11 10 9 9 8 8 7 8 7 6 6 6 7 8 9 9 8 8 6 6 10 10 11 11 11 12 12 12 12 12 14
4 5 5 3 4 1 8 9 7 6 3 3 1 4 6 10 9 7 7 7 6 4 3 0 4 4 5 4 6 5 6 6 7 7 7 8 9 8 7 8 8 8 9 8 9 10 10 10 10 11 11 10 9 9 9 11 10 10 11 11 11 10 10 8 9 8 7 6 6 6 7 8 9 8 6 7 5 6 10 11 11 10 9 11 12 12 14
5 5 3 4 3 1 8 9 7 7 4 2 6 7 4 9 8 7 4 4 5 4 2 2 3 4 6 4 6 6 7 8 7 7 8 8 9 10 10 9 8 9 7 8 8 9 10 10 11 10 10 9 9 8 8 8 9 9 10 11 12 11 11 11 9 8 8 8 7 7 7 7 6 3 1 3 10 13 12 11 12 12 11 12 13 13 14
4 3 6 4 3 6 9 10 8 6 3 4 6 6 8 7 8 6 6 4 4 3 3 3 4 2 4 9 10 10 10 9 9 8 8 7 7 9 10 10 11 9 8 8 8 10 8 8 8 9 9 9 9 8 8 8 9 8 9 10 11 12 12 12 12 11 9 9 9 8 7 7 7 7 8 11 12 14 14 13 13 13 15 13 13 14 14
6 5 6 5 1 7 10 9 8 7 5 6 4 8 8 8 8 5 4 3 3 3 3 2 3 3 3 5 6 7 8 8 8 9 9 9 8 7 7 9 10 10 10 10 10 10 8 9 9 8 8 9 9 9 9 9 10 9 8 9 9 11 12 13 13 12 11 10 10 9 8 7 8 8 8 9 10 11 11 11 13 13 13 11 11 12 14
1 3 6 2 6 7 10 13 8 4 7 4 7 8 7 5 5 4 4 3 2 3 3 3 3 4 4 5 6 7 8 8 9 9 9 10 10 9 9 8 8 9 11 12 11 11 10 9 8 8 9 9 9 9 9 10 9 9 9 9 9 9 10 11 12 13 12 13 10 8 8 8 8 9 9 9 10 10 10 11 10 11 12 12 12 13 14
3 4 3 2 4 8 12 11 3 9 5 5 5 4 5 5 2 3 3 3 2 1 3 3 3 3 4 4 3 6 7 8 9 9 9 9 10 10 10 9 9 9 10 11 11 12 11 10 9 8 8 8 8 10 11 9 9 9 9 9 9 9 9 9 10 11 13 13 12 10 9 8 8 8 8 9 9 10 11 11 11 11 10 11 12 13 14
5 3 3 6 2 6 10 8 4 3 6 4 3 0 1 4 3 2 2 1 2 2 3 4 4 4 2 2 3 5 6 7 8 9 10 10 11 11 11 11 10 10 9 11 12 13 12 11 10 9 8 9 10 11 10 9 10 10 9 9 9 9 9 10 9 10 10 11 12 11 10 8 9 9 8 7 9 10 10 10 10 10 10 12 12 12 12
5 8 7 0 3 6 9 5 1 4 6 5 4 3 4 3 2 3 3 1 2 2 3 4 4 4 3 4 4 4 5 6 7 8 9 9 10 11 11 11 11 12 12 12 12 13 13 13 11 10 10 9 11 11 10 9 10 11 10 9 9 9 10 9 10 10 11 12 12 11 11 9 9 8 9 9 9 9 8 9 9 9 10 11 12 13 14
0 3 6 10 8 7 9 8 6 3 5 6 5 5 4 3 4 4 3 3 3 3 3 5 5 5 5 6 5 5 5 6 6 8 8 9 9 10 12 12 13 12 12 12 12 13 14 13 12 11 11 10 10 10 10 10 10 10 11 10 10 10 9 10 10 9 11 10 11 11 11 10 8 7 7 8 9 9 10 10 9 9 11 11 12 13 14
7 6 3 2 3 6 8 9 9 9 8 8 8 5 4 4 5 4 4 4 5 4 5 5 5 6 6 6 6 5 5 6 7 8 8 9 10 11 11 12 12 13 13 13 14 14 13 12 11 12 12 12 12 11 11 11 11 11 11 10 10 10 11 10 9 9 9 11 12 10 10 9 8 8 7 8 9 10 10 10 10 11 11 12 13 13 12
8 10 10 7 6 7 9 11 11 9 9 10 10 9 8 8 7 7 6 6 5 5 5 4 5 7 7 6 6 7 6 7 7 7 8 10 11 11 12 12 12 12 12 13 14 15 15 13 13 12 13 13 12 12 11 11 10 11 11 12 11 12 11 10 10 9 9 9 8 9 10 10 9 9 8 8 9 10 12 9 10 12 12 12 12 12 9
9 8 6 7 10 9 10 14 14 12 12 10 10 10 10 10 9 8 7 7 6 6 6 5 6 7 6 6 7 8 7 8 9 10 10 11 12 12 12 11 12 13 14 14 15 15 14 13 14 13 13 13 13 12 11 10 10 11 12 11 12 12 11 10 10 9 9 9 8 7 9 10 11 11 12 12 11 11 13 12 13 12 9 11 12 9 8
9 5 6 3 5 9 8 5 4 8 9 10 11 11 11 10 10 8 8 7 8 8 7 7 7 7 7 8 8 9 9 9 10 10 12 12 11 12 13 14 14 14 14 14 15 16 15 14 14 14 14 13 13 13 12 12 12 12 11 11 11 11 11 10 10 9 9 10 9 8 8 9 10 12 12 12 13 16 15 17 19 22 21 20 19 14 10
13 14 13 11 10 10 8 8 5 7 7 9 11 11 10 10 10 9 9 8 7 6 6 7 7 7 8 9 9 10 11 11 11 12 11 12 13 13 13 13 14 15 15 16 16 16 15 14 14 14 15 14 13 13 13 12 12 13 13 12 12 12 11 11 10 10 10 10 10 10 9 8 9 10 11 13 14 13 17 18 19 21 21 21 20 17 15
12 10 8 7 8 7 9 9 7 8 7 9 9 10 11 10 10 9 9 7 6 6 6 6 6 6 8 9 9 10 11 12 12 13 14 13 14 14 13 14 15 15 14 14 14 15 15 16 16 16 17 17 15 14 14 14 14 14 15 15 14 14 13 12 11 11 11 10 10 10 10 10 10 9 11 12 13 12 8 10 15 18 20 19 20 19 16
13 11 10 9 9 10 9 9 10 10 8 9 9 9 9 9 9 9 8 6 5 5 6 6 7 7 8 9 10 11 12 13 13 13 13 13 13 13 14 14 14 13 13 14 14 16 17 18 18 19 19 18 16 16 15 15 15 15 14 14 15 13 13 13 13 12 12 11 11 11 10 10 10 10 11 11 13 14 14 12 10 9 12 17 18 17 16
12 11 10 11 11 10 10 11 9 8 10 10 10 9 9 9 8 8 6 7 7 6 6 6 8 8 9 9 11 11 12 13 13 13 13 14 15 14 13 13 14 15 16 16 16 16 18 18 18 19 20 19 18 17 16 15 15 15 15 16 15 17 23 17 13 13 12 11 11 11 11 11 11 12 12 11 10 12 14 15 13 12 12 9 11 17 15
10 11 10 11 10 9 9 11 11 9 9 10 10 9 9 8 8 8 7 6 6 7 7 8 8 9 9 10 11 12 12 13 13 13 13 14 13 13 14 15 15 16 15 15 15 15 16 17 19 20 21 19 18 17 17 17 16 16 16 15 15 14 14 15 14 13 12 11 11 11 11 11 11 12 11 12 12 13 13 14 14 14 12 11 10 7 15
9 10 10 12 12 9 8 8 7 9 10 10 10 10 10 10 9 8 8 7 6 5 8 8 7 8 9 10 10 11 11 12 13 14 14 13 13 13 14 15 15 16 15 16 15 16 17 18 19 21 21 19 18 18 18 17 16 15 14 14 14 13 13 12 12 11 11 11 11 11 12 12 11 12 12 12 12 13 13 12 13 13 13 12 11 11 9
8 7 8 8 9 11 10 10 9 9 9 10 11 11 10 10 10 9 8 7 6 9 8 7 8 9 9 10 11 11 12 13 13 13 13 13 13 13 14 14 15 15 15 15 16 17 18 18 18 18 19 17 18 18 18 17 16 17 16 16 15 14 13 12 12 12 13 12 12 13 12 12 12 12 13 12 12 11 12 12 13 13 14 12 11 11 11
8 9 10 9 9 11 12 11 9 9 10 12 11 11 10 10 10 8 7 5 7 8 8 7 8 10 10 10 10 11 12 12 12 13 13 14 14 14 13 13 12 13 14 16 17 17 18 19 18 18 17 15 16 17 16 16 15 15 16 15 15 18 18 17 14 13 12 12 12 12 12 12 12 12 12 12 12 11 11 11 11 12 12 12 11 11 11
8 8 8 8 7 7 5 4 6 10 10 9 10 10 10 10 9 7 6 8 7 6 7 8 9 10 9 10 10 11 12 12 12 12 13 13 13 13 12 13 13 14 15 17 16 16 17 17 17 16 15 15 14 14 15 15 14 13 14 15 15 14 13 15 13 13 12 13 13 13 12 12 12 12 12 12 12 12 11 11 11 11 12 12 12 11 10
7 7 8 7 5 7 9 9 10 10 10 12 12 11 9 8 7 6 5 5 5 6 7 8 8 8 9 10 11 11 12 12 12 13 13 12 12 13 13 12 12 14 15 15 15 15 15 15 15 14 13 13 14 14 15 15 14 13 14 14 14 13 13 12 12 12 12 13 13 12 12 13 12 12 12 12 12 12 12 12 12 11 12 13 13 12 11
9 9 6 3 8 10 12 12 11 12 12 12 11 9 7 7 5 4 4 5 6 6 7 7 8 9 9 10 11 12 12 12 11 12 13 13 13 13 13 14 14 14 15 14 13 11 10 10 11 12 13 13 13 13 14 14 13 14 15 15 14 13 12 11 12 12 12 13 13 13 12 12 12 12 12 12 11 11 12 13 13 12 12 13 13 13 11
9 10 7 8 6 8 9 10 11 12 12 11 9 7 6 5 5 5 1 4 6 5 6 7 8 8 9 10 11 11 11 11 12 13 13 13 12 12 13 13 14 14 15 14 12 11 12 13 12 12 13 13 14 14 14 15 14 14 15 15 15 13 12 11 11 12 11 11 11 11 11 11 11 11 11 10 10 11 12 12 12 12 12 13 13 12 12
4 6 6 5 5 6 8 10 11 11 10 8 7 7 6 6 5 5 5 5 4 4 5 6 8 9 9 9 9 10 11 12 11 12 13 13 13 12 12 14 15 15 15 15 13 12 13 13 16 19 15 13 13 12 12 13 14 14 14 13 12 12 12 12 11 11 11 11 11 11 11 12 12 10 11 10 10 11 12 13 12 12 12 12 12 12 12
2 1 5 8 5 7 8 7 8 9 7 6 6 6 6 5 5 3 2 4 3 4 5 5 7 8 8 8 8 9 9 10 10 11 12 12 12 12 13 14 14 12 13 13 13 13 13 12 17 22 14 10 12 11 11 14 8 7 9 11 11 10 10 10 11 11 11 11 11 11 12 11 11 11 11 11 11 11 11 11 12 12 12 12 12 12 12
2 1 1 5 8 6 6 7 7 6 7 7 7 6 5 5 4 3 2 2 2 4 5 5 6 7 7 7 7 8 9 10 11 12 11 12 12 12 12 11 11 9 10 12 14 14 12 14 18 14 10 10 10 11 13 17 17 12 10 9 10 9 9 11 10 10 10 10 10 11 10 9 10 11 11 11 10 11 11 11 11 11 11 11 11 11 10
6 5 6 6 7 6 6 7 8 7 8 9 7 6 5 4 3 3 2 0 2 3 4 4 5 6 6 7 8 8 9 10 10 11 11 12 11 11 10 11 10 10 10 13 14 13 12 13 12 11 10 10 11 11 13 16 17 11 10 11 11 12 12 10 10 9 9 9 9 9 9 10 10 10 10 10 10 10 10 10 9 10 9 10 10 10 10
7 7 7 8 9 9 8 9 8 8 8 8 7 7 5 5 4 2 1 1 2 3 3 3 4 5 6 7 8 8 9 9 10 11 11 11 10 10 10 10 11 12 14 17 14 11 14 19 15 12 10 11 11 10 11 13 14 10 10 10 10 11 10 9 9 9 8 9 10 9 9 10 10 10 10 9 9 9 9 8 8 8 8 8 8 8 7
7 7 7 7 8 8 9 9 9 9 8 7 6 6 6 4 3 2 2 2 3 3 2 2 4 5 7 7 7 8 8 9 9 10 10 10 10 9 10 11 12 12 12 12 12 12 14 13 12 11 11 11 11 12 11 13 11 9 9 9 9 10 10 10 10 8 8 8 8 8 8 9 9 9 9 8 8 7 6 6 6 6 6 7 6 6 5
8 8 5 3 0 5 8 10 9 9 8 8 7 7 6 4 3 4 4 3 3 2 2 2 5 6 6 7 7 7 8 9 9 9 9 9 10 9 10 10 11 10 15 15 12 11 10 11 11 10 11 11 11 14 16 12 10 10 9 9 8 8 9 9 8 7 6 7 7 8 8 8 8 8 7 6 5 5 5 4 4 4 5 5 5 5 4
8 7 7 6 9 10 8 8 11 10 10 9 8 7 6 5 5 5 4 4 3 2 2 4 5 5 7 7 7 7 7 8 8 9 10 9 9 8 9 9 9 8 16 11 11 9 9 9 10 9 14 13 11 16 16 10 8 8 8 8 8 8 8 7 6 6 6 6 7 7 6 6 6 5 4 4 3 3 2 2 2 3 3 3 3 3 2
8 7 7 5 5 7 10 10 10 11 11 9 8 7 6 5 6 5 5 5 4 4 4 5 5 6 7 7 6 6 6 7 8 8 8 8 8 7 8 8 8 10 16 11 9 10 10 10 9 14 18 17 16 14 8 7 7 7 7 7 6 6 5 5 5 5 5 4 4 4 4 4 3 3 3 3 2 1 1 1 1 2 3 3 2 2 2
7 6 7 6 9 7 5 8 10 11 9 9 8 7 6 7 6 6 6 5 5 5 4 4 5 6 6 6 6 6 6 6 6 7 7 7 8 8 9 10 9 8 11 15 10 9 8 9 13 19 16 17 14 12 6 7 6 6 6 6 6 5 4 4 4 4 3 3 3 3 3 2 1 1 1 1 0 1 1 2 2 2 2 2 2 2 2
6 5 5 6 9 10 9 6 7 10 10 9 8 8 8 7 7 6 5 5 5 4 4 4 4 5 6 6 6 7 6 5 5 6 6 5 5 6 7 9 8 9 12 13 9 9 8 14 16 14 16 17 16 10 8 8 8 7 7 6 6 6 5 5 4 4 4 3 3 2 2 2 2 2 2 1 2 3 4 4 5 4 3 3 3 3 4
4 3 4 8 9 10 11 9 10 10 10 9 8 7 7 7 7 6 5 5 5 5 4 4 4 5 5 5 5 5 6 6 4 5 6 6 6 6 8 10 11 12 10 8 8 9 10 10 12 15 15 17 16 8 8 7 7 8 8 8 8 9 8 8 7 6 5 5 4 4 4 4 3 3 4 4 4 5 5 6 7 7 6 6 5 6 6
3 4 8 9 9 11 11 11 10 9 8 8 8 8 7 7 7 6 6 5 5 4 5 4 4 4 4 4 4 4 4 5 7 6 6 6 7 8 8 7 9 13 11 9 11 12 18 16 16 16 16 15 9 8 9 8 8 8 8 8 8 8 8 8 8 8 7 7 7 7 7 7 6 5 5 5 6 6 6 7 7 7 6 6 6 6 7
4 8 7 7 9 11 10 10 9 8 7 8 8 7 8 8 7 6 5 5 4 4 4 4 3 3 3 3 3 4 4 4 5 5 6 6 6 7 8 9 12 12 9 8 10 9 14 18 17 17 16 13 9 9 8 8 8 8 8 8 7 8 8 8 8 8 8 9 9 9 8 8 7 7 7 7 7 8 9 9 10 9 8 8 8 8 8
10 7 7 8 8 8 8 7 7 7 8 8 7 7 8 8 7 5 5 4 3 3 3 3 3 2 1 3 2 3 4 4 6 6 6 7 7 8 9 9 9 11 12 9 10 10 13 17 16 16 12 8 8 8 8 8 7 8 8 8 8 8 10 10 12 13 10 10 10 10 11 12 12 12 11 9 9 9 9 10 10 12 14 11 9 9 8
7 5 6 7 7 7 6 6 7 7 7 7 7 7 7 6 6 5 4 4 3 3 3 2 3 3 1 2 3 3 3 3 5 7 7 8 7 8 9 9 10 10 11 10 10 10 10 10 10 9 9 9 8 8 8 8 9 9 10 8 9 8 8 9 8 8 9 9 8 9 10 10 10 9 9 9 9 9 9 9 8 8 9 9 10 10 9
9 5 5 7 7 5 5 7 8 6 6 6 6 6 5 6 6 5 5 4 2 2 2 2 3 4 4 3 2 2 3 4 5 5 6 7 8 8 9 10 9 10 10 9 8 9 9 9 11 14 13 9 9 8 11 14 11 10 10 10 9 8 10 10 9 9 9 10 10 10 10 9 9 10 10 9 10 11 10 9 9 9 9 8 7 8 10
Wind_Direction
78 62 65 50 73 67 68 58 48 60 36 47 79 67 29 352 263 175 140 138 126 136 133 132 120 113 99 83 71 62 57 61 62 59 59 54 45 41 40 37 33 26 22 15 14 18 20 19 19 17 13 9 7 3 6 359 348 344 345 328 228 214 224 224 221 221 223 227 224 217 219 218 217 219 220 218 217 217 212 214 214 216 216 217 214 218 220
102 85 72 57 92 115 108 95 105 76 77 71 78 84 71 80 89 123 136 126 123 124 129 127 117 107 97 85 76 67 63 60 51 53 56 53 50 45 42 36 32 32 25 19 15 12 14 16 15 15 12 5 1 1 359 356 350 354 345 329 334 251 217 222 227 225 222 222 219 219 217 216 217 217 218 218 215 216 216 214 216 217 219 220 222 220 222
115 102 151 140 123 153 132 118 116 142 115 99 85 93 94 99 117 131 130 127 118 114 121 119 119 113 107 95 72 67 63 49 51 53 47 45 44 46 44 37 32 27 26 24 20 14 11 9 7 11 9 0 356 359 355 354 353 343 335 329 322 324 262 234 225 225 222 215 214 216 214 215 216 215 216 217 217 216 218 218 220 217 219 221 224 225 225
140 144 137 153 172 183 156 138 134 147 168 144 127 110 42 126 131 141 139 146 137 137 131 130 128 122 115 97 83 67 57 54 51 47 46 42 39 37 35 36 31 21 19 20 18 15 10 7 4 3 1 359 357 354 350 346 345 335 327 320 309 315 296 263 255 241 233 222 215 212 212 215 215 215 216 217 218 217 219 220 218 221 221 222 225 229 230
128 120 180 129 189 181 195 182 142 122 73 67 99 86 56 61 135 151 179 127 135 142 147 143 136 123 110 91 76 83 73 60 52 50 39 40 36 35 29 28 27 23 17 12 10 13 9 5 3 2 359 355 356 352 348 345 335 341 334 322 318 299 339 333 317 271 243 238 235 229 218 215 216 216 217 217 219 222 222 222 224 221 224 225 224 226 231
123 134 133 210 209 212 155 74 92 41 109 158 154 115 118 101 282 57 58 114 125 138 161 144 126 126 117 117 97 61 50 63 59 49 48 35 31 29 30 22 19 18 13 9 4 6 4 3 3 359 3 356 349 349 350 349 349 350 350 344 337 343 299 274 284 279 274 256 241 240 237 231 226 223 221 220 222 225 227 227 225 226 226 226 226 226 228
150 133 189 201 220 170 81 114 90 102 99 71 99 111 106 93 75 99 119 131 135 123 123 103 107 127 147 133 94 77 70 53 46 49 43 35 26 23 22 16 13 7 4 4 359 1 358 357 357 358 4 1 352 354 351 352 356 353 0 14 6 4 335 314 283 279 261 254 259 249 237 235 234 235 236 237 232 229 230 227 225 225 230 230 228 228 229
88 202 195 217 144 80 146 100 125 90 208 132 134 115 104 125 118 135 134 107 119 135 134 134 125 148 217 186 180 119 73 54 45 26 37 27 21 19 11 9 7 2 357 356 355 351 346 353 359 2 0 355 355 351 352 354 349 352 3 10 10 352 339 342 346 331 311 286 258 247 243 239 236 236 236 234 238 238 240 241 236 231 227 232 233 231 230
241 213 213 213 95 167 141 167 173 183 171 185 199 196 154 158 168 150 139 153 169 165 143 158 152 185 229 193 184 117 69 53 42 32 19 26 20 8 5 5 357 355 350 347 347 338 347 345 356 1 352 352 350 350 352 351 346 345 359 11 4 349 335 332 328 330 312 296 293 282 256 249 246 244 241 239 237 238 242 241 243 240 237 233 232 235 234
266 261 218 212 208 246 188 141 120 83 58 12 42 307 153 168 171 170 155 166 162 192 211 223 314 285 251 219 170 111 76 43 30 10 8 3 7 1 358 352 344 347 348 338 337 333 337 341 352 351 347 351 343 347 350 348 344 341 349 1 356 349 335 326 317 307 290 284 275 267 267 259 253 256 277 309 283 252 240 241 242 244 246 245 240 238 237
208 242 254 221 235 154 79 124 133 122 130 117 76 245 231 166 178 180 182 179 167 209 198 140 300 267 239 221 97 64 39 8 7 353 356 349 345 344 346 340 343 346 340 329 322 324 330 338 345 339 342 343 340 346 347 343 342 342 347 348 348 343 335 329 313 304 296 276 263 265 262 262 257 249 225 224 258 297 268 250 246 247 243 252 255 252 243
227 252 240 241 247 121 140 132 140 138 129 159 238 242 187 140 162 160 180 181 148 181 195 261 250 260 239 227 65 3 358 352 342 347 342 340 336 333 333 332 350 334 319 313 314 325 328 337 330 329 337 335 338 341 336 330 333 339 343 340 335 333 330 324 313 307 303 291 279 270 264 263 265 258 331 235 232 231 237 240 244 244 239 236 238 244 251
176 213 249 268 151 118 135 141 136 129 150 242 223 230 102 146 142 162 143 172 151 157 201 208 251 191 336 335 333 343 341 335 332 335 328 324 332 327 326 333 337 319 319 318 320 317 326 324 317 324 329 326 329 330 327 322 328 334 338 334 333 331 328 323 318 313 308 298 287 276 266 260 259 256 225 227 235 242 239 234 228 231 239 241 241 240 240
242 219 241 237 48 100 140 141 143 143 187 205 229 84 124 131 137 131 147 184 174 208 240 255 270 315 318 306 306 307 319 322 318 316 319 324 324 322 324 329 316 318 317 317 312 312 318 313 315 319 318 317 316 320 319 323 326 328 328 328 329 329 323 320 316 312 309 305 301 296 286 277 272 267 271 276 270 258 253 250 241 237 236 239 248 253 251
267 251 245 246 248 138 167 138 148 184 236 61 99 129 114 126 131 166 181 225 194 222 242 226 256 276 297 307 313 316 311 315 317 319 324 322 323 324 324 313 320 317 315 315 315 315 312 315 318 312 310 307 305 306 307 317 322 322 323 320 321 318 314 313 312 311 308 303 299 294 295 294 288 289 287 277 273 276 259 245 241 237 234 233 232 237 241
258 194 222 235 27 119 156 161 197 171 243 81 124 117 155 144 165 187 198 191 214 261 268 288 290 297 293 277 297 304 304 310 316 315 318 320 318 318 316 317 319 322 309 306 307 308 310 311 309 306 301 296 294 295 299 309 316 317 312 312 309 307 305 302 304 302 306 305 300 296 292 288 277 267 271 276 268 263 263 252 243 235 235 232 234 236 241
235 305 18 64 94 148 171 204 21 131 144 141 137 358 82 171 177 197 249 239 187 229 276 284 291 280 260 299 304 296 303 304 308 315 317 318 316 315 317 318 321 313 308 306 304 301 302 304 305 303 298 291 288 285 292 303 308 309 306 301 298 295 298 300 300 301 299 296 292 291 290 285 279 269 252 252 258 258 258 258 251 245 240 238 239 243 244
245 273 265 135 123 176 184 184 48 146 161 171 183 187 212 194 193 180 248 233 243 257 248 282 277 271 302 299 288 289 293 298 299 303 305 305 312 312 314 314 319 317 309 303 299 300 301 302 301 300 297 292 288 292 296 294 296 298 299 295 291 292 294 295 299 302 303 301 297 291 287 286 278 272 267 252 246 254 249 250 250 251 246 243 243 242 244
343 252 176 217 216 190 205 205 178 185 188 190 194 197 225 197 188 194 209 233 243 248 264 255 266 284 292 287 287 290 287 284 290 292 295 299 302 309 309 312 313 309 311 306 304 302 299 302 302 299 296 291 288 289 289 290 289 291 293 292 288 287 287 292 293 296 298 299 303 301 297 287 277 268 265 264 260 254 251 246 244 246 249 248 246 243 243
228 250 121 167 180 220 214 219 209 206 206 199 199 210 203 197 184 202 200 202 227 228 237 237 257 276 274 276 283 285 283 287 290 289 290 295 298 299 303 304 304 302 300 300 300 300 297 298 298 297 293 290 290 290 290 292 291 290 285 282 286 290 290 289 287 287 287 293 294 292 294 293 294 297 291 285 273 263 260 256 250 245 244 246 247 247 249
233 247 246 214 186 211 211 217 226 228 213 203 203 201 195 192 196 196 199 206 230 220 234 241 261 264 267 276 283 286 289 287 287 291 295 294 295 298 299 301 300 297 297 295 295 294 293 295 294 291 290 289 286 283 282 284 284 282 283 284 282 281 282 280 276 275 276 280 285 293 297 299 297 289 279 279 284 281 272 265 262 264 259 247 244 253 264
243 248 251 220 238 240 219 212 216 221 223 219 203 198 198 197 198 198 205 205 216 229 234 248 251 259 272 281 286 286 288 287 288 291 292 294 295 296 295 295 295 292 289 288 288 289 289 291 291 289 288 286 286 285 282 280 279 277 278 279 281 279 277 276 277 279 281 283 288 289 292 297 298 295 289 273 263 270 280 289 297 287 270 271 271 283 293
254 260 270 279 278 276 286 314 227 211 218 215 210 201 200 197 200 201 208 215 215 223 236 243 252 260 266 276 280 283 284 289 292 291 293 293 294 294 297 295 293 290 289 288 287 287 288 288 286 286 286 285 285 285 282 277 276 276 276 276 274 274 275 271 275 284 289 291 291 287 287 287 291 294 294 291 268 255 253 263 268 271 269 262 263 256 244
283 288 286 285 265 261 270 261 253 241 224 212 208 204 200 200 198 199 207 212 225 234 237 241 248 265 274 280 287 288 289 291 294 295 293 293 292 293 292 291 290 291 290 289 287 286 286 285 286 288 287 285 284 284 283 280 276 273 271 268 268 270 272 273 273 268 271 277 282 287 285 280 281 284 286 285 285 257 242 245 251 255 258 263 266 266 257
260 273 288 319 320 285 265 266 249 240 215 212 213 204 199 196 196 197 205 210 223 241 250 260 267 275 279 284 288 292 296 296 296 297 297 296 295 293 291 290 288 288 288 287 286 285 284 283 284 284 284 283 283 282 282 280 276 272 270 267 266 267 268 269 267 267 268 272 277 276 277 279 277 275 276 277 280 288 267 242 246 252 257 256 257 260 257
252 260 269 259 255 269 279 261 244 239 217 206 207 205 191 195 192 195 205 217 232 233 252 263 277 281 285 290 292 292 292 291 294 297 295 294 296 295 293 291 291 289 288 287 286 285 284 284 283 283 281 281 281 280 278 277 278 276 268 262 260 260 263 267 268 268 267 268 271 272 271 272 273 274 278 285 289 289 291 296 287 269 250 249 251 254 256
242 249 261 265 254 247 246 246 251 224 214 207 209 197 187 185 184 203 208 224 236 259 274 284 278 280 285 290 287 286 288 292 293 293 296 299 297 295 293 291 289 288 287 286 285 284 284 283 282 279 277 278 280 279 277 275 272 269 268 267 267 269 268 269 269 267 262 261 263 265 266 268 272 274 276 280 285 286 289 289 290 287 291 277 241 226 235
246 243 238 243 244 238 233 228 242 255 225 210 205 202 194 185 185 199 213 227 229 235 252 271 284 287 285 286 290 292 292 293 296 297 296 296 297 297 295 294 292 290 288 286 286 287 287 283 279 277 275 275 276 274 272 269 267 265 263 260 260 259 261 258 254 253 256 259 263 266 269 270 271 274 278 279 276 278 280 284 283 284 285 279 286 260 225
242 242 236 233 244 251 261 269 232 224 219 207 201 200 201 199 204 206 223 235 250 264 262 262 270 282 284 286 289 292 295 295 296 298 298 297 296 294 294 294 293 291 290 289 287 286 285 282 279 277 274 274 273 273 271 268 265 264 260 256 255 255 255 254 254 255 253 256 260 264 269 273 274 273 273 272 275 277 276 276 277 281 280 287 291 289 259
229 229 245 241 236 247 241 230 218 217 214 205 195 194 200 202 208 222 235 239 246 264 283 291 282 281 288 292 294 296 298 299 298 297 296 294 293 294 294 295 295 292 289 287 292 296 294 288 279 272 271 270 270 270 270 267 264 260 258 258 257 256 255 258 260 257 257 259 262 265 263 263 263 265 268 272 274 274 275 273 278 281 282 285 282 283 283
266 232 226 235 235 231 227 229 218 207 196 195 190 190 190 206 225 236 239 252 266 270 276 279 284 286 292 295 298 300 299 297 295 296 296 296 295 295 297 299 301 301 301 301 302 299 293 288 279 273 273 269 266 266 269 268 263 262 261 257 255 249 248 253 259 260 262 264 266 265 265 264 262 261 265 270 272 271 270 274 276 276 281 282 280 279 280
250 220 214 231 228 213 196 220 229 206 179 169 189 191 196 207 220 224 226 244 254 268 276 283 287 293 296 300 303 303 299 298 298 298 296 295 296 298 301 303 300 299 300 299 302 302 296 291 286 280 275 268 263 264 263 263 262 260 259 257 253 251 242 227 240 244 248 252 255 255 256 260 260 262 262 263 266 267 269 271 273 277 280 282 284 284 288
261 213 217 211 194 203 206 200 204 185 172 189 195 201 204 212 223 233 241 256 266 270 280 284 291 298 303 304 303 301 300 300 299 296 297 301 303 303 303 300 298 298 300 303 309 312 313 302 293 291 286 278 273 269 266 262 259 257 257 256 256 251 249 243 246 252 252 253 254 254 258 256 260 261 261 262 264 269 272 274 278 279 277 278 277 279 280
321 290 307 282 208 210 205 199 196 183 186 192 200 200 205 205 218 218 223 238 251 267 280 295 304 305 303 304 303 302 301 300 300 304 308 308 307 308 307 305 302 300 299 307 311 317 329 329 324 306 288 278 273 268 264 261 257 258 257 255 253 251 248 245 240 244 248 252 253 255 253 255 254 255 257 256 260 265 271 277 278 279 280 280 279 281 283
336 321 288 269 249 226 208 191 188 188 187 196 186 192 198 200 192 219 272 270 273 284 294 301 302 303 306 308 309 308 308 306 309 310 312 311 311 313 313 308 303 299 300 303 310 316 324 320 317 312 309 302 287 271 260 255 253 254 258 257 257 255 253 248 250 251 252 253 257 258 258 259 261 262 262 263 264 265 268 270 274 276 278 278 280 281 278
328 316 304 299 252 209 188 190 188 186 187 185 184 191 194 205 211 215 196 234 283 295 306 306 308 311 312 313 313 314 315 315 316 315 313 312 310 307 308 306 305 306 307 306 305 313 319 317 317 316 316 312 309 291 272 259 251 251 250 252 255 256 254 256 257 256 255 256 254 254 258 261 264 262 263 263 263 262 264 267 268 273 275 278 280 282 284
282 289 321 322 273 193 188 174 188 188 188 179 171 179 191 196 209 219 253 259 277 311 324 321 316 315 316 319 321 321 321 320 319 316 315 313 310 309 308 306 305 310 316 311 313 319 315 311 313 314 315 310 311 309 305 301 286 268 267 261 258 261 266 265 260 257 259 255 254 254 255 256 251 253 253 254 255 257 260 263 266 267 272 278 282 282 283
255 144 353 296 271 225 177 178 182 172 167 167 168 179 183 188 194 209 220 271 301 317 320 325 323 318 313 321 324 325 323 323 322 320 317 314 312 308 306 310 314 317 317 316 319 314 311 309 310 309 307 305 304 304 301 300 303 301 290 286 274 272 266 263 262 260 258 257 256 254 252 252 253 253 252 252 253 256 257 262 266 270 273 273 276 281 288
259 207 207 247 264 224 188 179 169 166 164 164 167 165 177 178 168 186 217 320 342 338 332 345 326 320 329 332 327 326 327 327 326 323 319 316 314 309 304 306 303 316 316 316 314 313 311 312 313 307 300 298 298 295 293 291 290 285 282 278 278 271 267 263 265 265 264 262 260 258 255 253 252 255 256 258 260 261 263 264 269 273 275 277 279 280 282
284 259 220 202 219 217 192 185 175 166 161 162 169 163 167 165 170 178 127 60 43 13 2 343 337 337 340 337 332 331 334 334 331 327 325 324 319 313 314 308 318 322 323 320 316 319 323 323 317 311 307 308 306 298 295 298 300 293 283 279 275 273 271 276 275 269 259 251 248 248 251 255 258 259 260 263 264 265 265 269 272 273 274 274 275 277 281
282 272 248 222 224 225 202 185 177 166 165 169 163 151 156 162 159 147 108 74 75 63 35 1 353 350 349 343 340 339 341 340 335 332 331 328 326 328 323 322 333 331 327 325 327 323 323 323 323 320 316 311 304 303 300 305 302 288 284 280 280 276 272 265 260 260 258 257 256 255 257 263 263 261 260 259 260 264 269 275 277 280 280 282 280 280 281
282 280 264 147 246 283 246 183 170 154 155 149 149 144 145 147 134 118 114 119 101 77 42 31 31 2 359 352 347 348 348 346 338 339 336 335 332 333 333 327 332 324 324 328 333 327 323 325 326 322 319 316 309 310 311 305 293 287 283 282 276 276 272 270 266 266 266 263 261 258 259 256 260 262 264 262 262 268 278 283 286 290 292 289 287 291 289
281 279 266 216 211 198 225 181 160 161 151 150 144 145 141 133 129 125 115 104 94 99 68 43 40 24 14 4 357 353 356 347 344 342 338 341 339 341 334 318 323 326 336 340 338 336 337 335 336 333 331 330 324 318 310 300 296 296 290 287 283 283 279 279 277 273 271 270 268 267 263 261 265 262 264 263 268 281 301 307 312 315 316 323 318 314 315
276 271 264 229 184 190 185 160 150 152 152 150 146 143 136 127 122 114 108 112 114 88 63 52 38 25 14 9 0 356 350 350 346 345 338 333 325 329 330 330 340 335 348 349 342 345 343 340 341 341 341 342 337 333 328 324 317 310 308 305 302 298 292 290 287 282 278 278 280 275 277 278 271 264 257 255 260 273 298 333 340 337 331 332 350 2 13
272 268 254 207 179 181 170 148 155 155 144 140 142 137 130 123 114 112 115 114 96 84 74 58 43 27 19 12 9 353 340 331 336 337 331 337 332 340 331 335 347 351 357 359 351 352 342 341 347 350 355 355 358 357 358 346 344 337 331 327 324 325 329 321 310 307 310 306 302 297 304 306 316 324 280 283 358 72 59 54 56 43 30 9 6 21 25
277 266 255 197 181 167 148 147 147 147 141 140 130 128 125 120 114 115 116 112 100 86 72 55 44 36 30 19 4 356 345 333 331 348 343 349 344 326 321 347 1 4 2 1 2 3 355 353 358 0 4 12 10 8 10 11 8 3 8 2 0 6 2 356 354 3 11 13 357 351 11 36 49 45 47 63 96 95 91 86 84 79 72 66 67 68 71
279 264 197 171 148 139 133 141 142 146 143 139 136 131 129 127 125 124 120 112 105 95 76 59 52 51 47 36 20 6 358 357 6 12 351 348 346 352 356 358 8 10 8 8 7 13 15 11 7 9 12 14 15 2 353 3 14 17 17 24 21 21 18 16 17 23 28 29 29 44 52 52 58 59 67 72 79 83 89 87 81 71 70 73 77 78 78
276 194 148 142 141 135 140 152 149 150 152 148 138 134 135 131 129 132 128 117 108 97 84 80 76 77 62 58 54 30 9 359 2 15 12 1 0 360 3 8 12 15 11 10 12 15 25 23 18 21 23 23 10 1 5 1 4 11 17 21 24 18 17 20 21 26 29 37 41 42 48 52 53 55 62 64 67 65 69 73 76 72 69 69 70 69 68
164 137 119 117 126 144 148 147 153 154 142 135 137 135 138 135 134 131 125 126 122 107 95 85 74 79 107 87 40 35 36 23 13 5 3 10 9 6 7 5 15 13 14 16 15 17 22 25 24 28 31 28 22 18 13 13 13 15 21 26 20 26 23 22 22 14 19 28 39 49 51 54 60 66 67 65 66 67 69 66 67 68 71 74 75 71 69
100 106 115 125 135 142 150 151 149 140 143 140 140 145 150 147 146 140 142 126 105 82 82 77 77 60 38 58 49 35 30 16 17 12 14 20 18 18 12 15 14 18 21 23 22 19 23 29 28 24 27 27 28 29 25 20 14 20 23 27 32 32 32 33 33 32 26 27 30 37 45 48 45 40 42 49 56 61 63 69 68 68 65 66 68 62 52
101 114 122 138 148 151 156 137 132 138 143 138 147 157 156 151 136 141 137 109 101 78 54 48 51 63 49 31 34 34 10 5 19 24 17 23 23 25 22 14 19 23 25 27 26 25 23 25 33 29 19 22 25 31 32 34 34 34 31 31 33 32 30 30 32 33 35 34 31 32 33 36 41 46 39 35 40 41 41 44 48 57 58 57 60 61 58
122 106 90 111 113 121 126 126 128 129 130 140 146 152 148 146 142 133 118 113 119 100 76 52 56 36 36 66 68 38 24 8 14 16 26 22 19 18 24 21 23 32 30 31 29 29 31 29 31 36 38 33 31 29 32 39 40 36 35 37 36 35 38 36 33 33 34 36 36 36 36 35 31 35 39 41 46 47 49 46 43 47 55 52 48 53 53